Location: Azul
(36.7830°S, 59.8500°W)
Time: 13:15:32
(UTC-03:00)

ISS - Pass Details

Date: 21 August 2017
Orbit: 401 x 408 km, 51.6° (Epoch: 19 August)

Event Time Altitude Azimuth Distance (km) Brightness Sun altitude
Exits shadow 05:35:24 25° 43° (NE) 885 -1.8 -24.5°
Drops below altitude 10° 05:36:54 10° 45° (NE) 1,477 -0.5 -24.2°
Sets 05:38:58 0° 46° (NE) 2,332 0.7 -23.8°
